User: anonymous   Login
Location: Laverne
(36.7100°N, 99.8930°W)
Time: 02:22:04
(UTC-05:00)
Language:

Iridium 32 - Orbit

View from above orbital plane
View from above orbital plane
View from above satellite
View from above satellite

Ground track
Ground track

The orbit data is extracted from the following two-line orbital elements,

1 24945U 97051B   15239.97784105  .00000127  00000-0  38123-4 0  9998
2 24945 086.3984 202.6369 0002355 084.1777 275.9688 14.34219113939938
Epoch (UTC): 27 August 2015 23:28:05
Eccentricity: 0.0002355
inclination: 86.3984°
perigee height: 776 km
apogee height: 779 km
right ascension of ascending node: 202.6369°
argument of perigee: 84.1777°
revolutions per day: 14.34219113
mean anomaly at epoch: 275.9688°
orbit number at epoch: 93993

The dashed part of the orbit path shows where the satellite is in the earth's shadow,  

DLR